BAGIKAN:



Setiap hari, sepanjang waktu siaga, itulah pelayanan yang diberikan Yakesma untuk masyarakat melalui program Layanan Ambulance Yakesma 24 Jam (Layak 24). Bersama para relawan tangguh yang tak kalah dengan lelah dan tak mundur meski tak kenal libur, program Layak 24 ini terus bergerak meluaskan manfaat kepada masyarakat.


Misi utama yang menjadi tugas dilapangan Tim Layak 24 adalah layanan pengantaran Jenazah dan juga orang sakit. Dalam layanan pengantaran Jenazah tidak terbatas pada pengantaran jenazah ke tempat pemulasaran saja, namun juga dilakukan pengurusan jenazah mulai dari memandikan, mengkafani, menshalatkan hingga menguburkan menyesuaikan kebutuhan dan permintaan keluarga penerima manfaat.




Beberapa cabang dan kantor layanan Yakesma juga telah memiliki program Layanan Ambulance. Terkhusus Yakesma Pusat, program Layak 24 ini bergerak di wilayah Jakarta, Bogor,Depok, Tangerang, dan Bekasi. Tidak sedikit pula layanan yang dilakukan harus melintas jalur antar provinsi.




Ditengah segala keterbatasan yang ada, Layanan Ambulance Yakesma terus bergerak, melusakan manfaat menembus ruang dan waktu, meski tak sedikit dijumpai kendala-kendala teknis maupun non-teknis yang dialami oleh para relawan. Dari itu, salam hormat dan apresiasi setinggi-tingginya kepada para relawan Ambulance Yakesma yang beramal sepenuh hati dan selalu siaga setiap hari, 1 x 24 jam menerobos kondisi medan, menembus ruang dan waktu. Terima kasih dan apresiasi setinggi-tingginya juga untuk para donatur Yakesma yang telah berkontribusi menghilangkan duka dan meringankan beban para penerima manfaat melalui progam Layanan Ambulance Yakesma 24 Jam (Layak 24).


Tanggal Donatur Nominal
2022-02-04 10:21:27 Dea Nazomi Rp 20.000,00
2022-02-25 11:27:26 Nur Wiqoyah Rp 10.000,00
2022-03-09 05:49:14 Alfian Rp 200.000,00
2022-03-31 20:52:41 Eva Nurizma Rp 20.000,00
2022-04-01 06:39:11 Erlis Rp 20.000,00
2022-04-02 05:28:24 Ayu NP Rp 10.001,00
2022-04-08 05:54:32 Yessi Vadila Rp 20.000,00
2022-04-11 11:06:28 Mansur Rp 100.000,00
2022-04-15 05:30:58 Ummu Zalfa Rp 10.000,00
2022-04-15 05:36:03 Dewi Daelami Rp 500.000,00
2022-04-15 05:51:26 Nurul Makmurijah Rp 500.000,00
2022-04-15 11:20:26 Widad Maulana Rp 500.000,00
2022-04-15 17:06:17 Yunita Ariyani Rp 300.000,00
2022-04-16 09:03:48 Nurul Septiani Rp 500.000,00
2022-04-18 09:23:43 Dian Fitriyani Rp 50.000,00
2022-04-18 09:55:03 Rahma Rp 150.000,00
2022-04-18 14:39:39 Rofifah Yuba Huwaida Rp 10.000,00
2022-04-19 05:36:23 Ayu NP Rp 25.000,00
2022-04-21 01:02:18 M.Ali Hanafi Rp 25.000,00
2022-04-21 05:17:12 Rouf Rp 300.000,00
2022-04-21 23:43:37 Isnaeni hafifah sinta Rp 100.000,00
2022-04-22 18:20:17 Bayu Rp 450.000,00
2022-04-24 11:29:58 Tilawatil Rp 100.000,00
2022-04-24 22:40:26 Melgy Rp 50.000,00
2022-04-25 08:25:15 Erizal Rp 200.000,00
2022-04-25 23:11:53 Hamba Allah Rp 10.001,00
2022-04-25 23:28:18 Nusur W Rp 100.000,00
2022-04-26 03:47:54 Yunita ariyani Rp 50.000,00
2022-04-27 19:39:26 Abu Rp 100.000,00
2022-04-28 05:35:48 Yessi Rp 20.000,00
2022-04-29 03:07:51 Halimah T Rp 50.000,00
2022-04-29 03:56:22 hamba Allah Rp 2.500.000,00
2022-04-29 05:57:56 Nory Rp 100.000,00
2022-04-29 11:57:26 wahyu kresnaningsih Rp 100.000,00
2022-04-29 17:27:10 Cipuk Muhaswitri Rp 200.000,00
2022-04-29 20:33:47 Hamba Allah Rp 200.000,00
2022-04-29 21:52:06 Zakiyatul Muthiah Rp 10.000,00
2022-04-30 10:25:46 ZISWAF DKM KP DJBC Rp 500.000,00
2022-04-30 10:59:02 Sani Rp 100.000,00
2022-04-30 14:56:24 Widya bayu purnanda Rp 100.000,00
2022-05-01 07:18:14 Ramitha Clara Sakty Rp 50.000,00
2022-05-01 08:00:03 Mely Yusra Rp 500.000,00
2022-05-01 13:40:09 Zakiyatul Muthiah Rp 20.000,00
2022-05-11 05:47:34 Hamba Allah Rp 10.000,00
2022-05-25 05:46:19 Hamba Allah Rp 10.000,00
2022-06-07 05:43:01 Fulanah Rp 10.000,00
2022-06-19 05:40:27 Hamba Allah Rp 25.000,00
2022-06-24 05:29:00 Hamba Allah Rp 50.000,00
2022-06-29 05:39:18 Hamba Allah Rp 10.029,00
2022-07-02 06:32:46 Hamba Allah Rp 25.000,00
2022-07-14 06:01:14 Fulanah Rp 10.000,00
2022-07-15 02:20:11 Irfan Hafidh Afthony Rp 50.000,00
2022-07-17 05:51:37 Ayu Rp 10.000,00
2022-07-30 02:33:50 Nurani Istiqamah Rp 50.000,00
2022-08-05 16:08:09 Werdi Pratiwi Rp 50.000,00
2022-09-03 13:02:09 Eva mardiyati suwarni Rp 300.000,00
2022-09-18 06:15:02 Hamba Allah Rp 20.000,00
2022-09-29 06:16:04 ayu pramesti Rp 10.000,00
2022-10-30 06:01:09 Hamba Allah Rp 10.000,00
2022-11-11 11:09:27 Arsyad Abdurrahman Hiro Yusuf Rp 50.000,00
2022-11-21 08:26:55 Hamba Allah Rp 10.000,00
Belum ada laporan